Powrót do katalogu

STARLINK-38298

AktywnyŁącznośćSSO
NORAD 100324·PAYLOAD·🇺🇸 United States

Wystrzelony Aug 12, 2026 z Vandenberg Space Force Base

Loading…

Następne Przeloty (najbliższe 24 godziny)

TLE

ŚwieżeSource: Space-Track

Epoka: Sep 14, 2026, 22:47 UTC

1 A0324U 26184Z   26257.94967245  .00015514  00000-0  43071-3 0  9992
2 A0324  97.2835 123.2064 0001336 104.5202 255.6191 15.36983606  6518

Śledź STARLINK-38298 w czasie rzeczywistym z AllMySat

Download on the App Store